Wind_Speed
35 35 35 36 40 41 41 44 49 49 49 50 52 54 56 58 62 65 68 71 74 77 79 81 82 82 83 84 84 84 85 85 86 85 86 89 90 91 90 89 87 85 87 87 87 86 84 83 84
35 35 37 37 38 39 39 39 40 42 42 43 47 48 51 54 56 59 63 68 73 77 80 82 83 86 90 92 93 92 92 95 94 94 94 94 95 96 96 96 95 93 92 92 91 91 90 89 88
31 31 30 30 30 31 32 32 27 27 30 35 38 44 44 47 50 54 59 63 66 71 75 80 84 88 92 95 97 99 101 103 103 103 101 102 102 102 102 102 102 101 100 100 98 95 95 96 95
24 25 25 26 26 21 19 18 19 30 33 35 35 39 42 47 50 55 60 66 70 73 77 79 82 85 90 95 98 100 103 107 108 109 110 111 110 110 109 108 107 107 106 105 106 106 103 100 98
19 19 18 14 14 18 19 22 25 30 36 39 39 39 42 46 50 52 56 62 70 78 81 81 82 85 89 93 95 99 105 108 110 112 115 116 116 116 117 117 117 115 113 110 109 109 110 108 106
12 9 13 15 17 16 19 25 28 31 35 37 40 41 47 48 52 58 62 61 63 67 72 79 86 89 90 92 98 101 104 105 110 115 116 117 118 119 122 124 125 124 122 120 118 115 113 114 115
12 9 7 12 14 15 21 26 30 33 40 45 45 48 50 53 58 64 67 71 72 75 74 75 78 78 83 88 92 99 104 108 112 113 115 119 123 123 123 126 127 130 131 129 127 124 123 119 118
9 12 13 16 19 24 28 32 35 41 44 45 48 51 53 60 65 70 73 76 77 81 82 82 86 89 93 92 92 99 106 111 111 117 116 123 123 124 129 132 130 134 133 133 136 134 132 129 125
13 13 15 20 25 29 33 38 41 45 48 51 55 57 62 66 71 74 78 81 84 89 90 92 94 94 97 98 103 100 100 106 114 116 125 121 125 128 128 130 133 136 138 137 138 139 140 138 134
15 18 20 25 29 32 35 39 44 49 53 57 61 65 71 74 78 81 83 87 90 94 101 105 106 108 108 104 101 100 100 101 105 113 118 126 132 131 132 137 135 138 140 141 142 142 141 141 141
19 21 26 30 34 37 39 44 49 54 59 63 68 72 77 82 85 89 92 94 96 99 105 109 111 111 110 107 102 99 96 96 97 101 107 114 122 127 143 138 142 142 142 143 144 146 145 144 143
23 26 30 35 39 40 43 48 53 59 63 67 72 77 82 86 90 94 96 101 106 111 115 117 112 106 101 99 91 87 88 89 92 92 92 100 104 111 121 139 150 149 146 145 143 144 148 147 146
26 29 33 38 41 44 49 53 56 62 66 71 77 82 86 90 94 101 105 110 113 118 120 110 99 93 84 78 77 78 77 78 81 83 86 87 89 94 98 102 120 134 146 147 154 146 149 147 144
33 36 40 43 46 48 53 55 58 65 70 75 80 87 93 98 102 107 112 116 119 122 109 98 88 80 70 62 59 58 59 62 63 64 65 66 66 67 72 77 89 99 113 129 149 150 155 150 147
39 44 45 48 50 51 54 59 63 68 73 79 86 93 99 103 109 115 119 121 123 110 96 87 77 66 57 49 45 42 43 44 44 48 48 50 52 55 59 62 70 77 83 95 114 144 138 151 155
42 48 51 54 54 55 56 60 65 71 77 84 92 99 106 111 114 121 123 125 109 97 90 76 62 54 47 41 37 35 38 35 35 35 40 41 41 40 42 48 53 59 67 77 85 93 120 134 147
47 52 56 56 56 59 59 61 68 74 81 88 95 102 108 114 121 127 128 109 95 89 75 59 49 43 41 37 36 37 34 36 37 36 39 39 40 40 40 43 47 49 48 54 65 76 83 96 112
53 56 58 57 57 60 64 66 70 77 83 91 99 107 112 122 125 125 105 93 85 72 57 45 39 37 37 35 37 39 40 41 43 40 44 42 42 38 42 45 47 45 45 45 50 55 68 78 87
49 51 55 57 59 62 67 68 72 78 85 94 104 111 117 123 121 106 95 84 69 55 44 36 35 36 33 37 38 41 43 45 42 40 41 42 45 46 48 51 49 48 48 49 47 49 53 62 78
48 50 53 53 56 62 66 71 74 80 87 96 104 112 115 125 113 98 86 70 56 45 38 33 33 34 37 39 41 44 48 48 48 48 46 44 40 41 44 48 52 55 55 55 52 51 51 54 63
47 48 51 56 59 63 66 70 74 80 89 100 109 117 122 122 103 91 72 58 45 38 34 34 33 34 35 38 41 44 46 46 47 49 48 45 46 49 53 54 56 59 60 61 59 55 53 53 59
44 49 54 57 59 63 65 69 73 82 92 102 111 118 121 117 99 80 63 50 38 31 30 29 29 31 34 35 38 39 42 46 46 49 49 49 50 52 53 57 58 61 62 63 61 61 58 54 58
46 50 53 57 60 62 66 70 75 84 95 104 112 118 119 102 95 71 56 42 32 30 31 32 34 35 37 39 41 44 47 47 49 50 50 52 53 55 55 56 57 59 62 63 63 62 61 60 64
45 47 53 59 60 63 67 73 76 86 96 106 116 118 110 98 84 61 50 37 32 32 37 38 38 37 37 37 36 36 37 39 40 40 42 46 51 54 57 59 58 60 62 64 66 64 64 63 65
43 47 51 57 61 66 69 75 82 93 102 109 115 120 108 99 73 55 44 40 41 42 40 39 38 38 38 38 35 33 32 32 33 35 37 38 39 41 44 48 52 56 59 62 63 64 64 63 61
47 49 53 58 62 67 71 77 85 96 104 114 117 120 104 93 61 44 41 43 43 42 41 38 36 38 41 40 39 38 38 38 37 38 39 41 43 45 47 49 51 55 57 60 60 60 59 58 58
45 48 50 56 61 65 70 75 86 97 107 115 115 115 102 86 53 41 43 44 42 41 35 37 40 38 36 37 39 41 41 41 42 41 41 43 44 45 47 48 49 50 52 53 53 53 52 55 55
44 47 50 55 59 64 70 75 86 95 101 110 113 114 98 77 49 42 46 41 39 38 39 36 35 38 42 44 47 49 50 49 49 48 47 48 48 47 46 46 46 46 44 41 40 43 46 48 49
46 47 50 56 61 66 71 77 88 96 103 112 113 106 96 67 46 43 41 39 37 36 37 38 41 44 47 51 55 58 60 61 60 57 54 50 46 42 37 36 37 37 36 35 34 36 36 40 42
48 48 51 57 62 67 73 79 90 99 106 114 113 104 91 60 44 43 37 34 33 36 37 41 43 46 51 57 62 66 68 70 66 61 58 51 45 39 34 32 30 30 28 27 27 27 31 31 37
Wind_Direction
279 279 279 282 279 278 274 273 279 281 281 281 280 279 279 277 274 273 272 271 271 270 268 267 265 264 261 259 256 254 254 254 254 253 253 252 251 247 246 246 246 245 248 247 247 245 243 241 239
271 276 277 281 282 284 287 290 292 293 295 293 288 286 282 278 277 278 278 275 273 271 268 266 265 263 262 261 260 257 254 253 252 251 251 250 250 250 248 247 246 246 247 246 247 245 245 244 242
282 283 285 289 293 296 298 301 305 309 326 322 310 305 301 294 288 285 279 276 273 272 271 269 267 265 263 261 259 257 256 256 255 253 250 250 250 249 248 248 247 247 245 247 247 246 246 245 245
287 290 293 295 299 310 322 327 330 334 330 328 316 313 308 304 299 295 294 291 284 281 275 273 269 267 265 261 260 259 257 256 254 254 253 251 250 249 249 247 248 247 247 246 246 246 245 245 244
286 293 297 312 325 326 323 336 327 318 328 321 311 313 312 310 305 304 304 294 287 284 279 275 274 271 271 267 263 262 259 257 255 255 253 251 251 250 248 246 247 247 246 246 246 245 246 245 245
293 313 329 315 311 311 325 322 319 320 317 319 321 316 316 314 312 306 303 294 290 286 280 276 274 273 274 266 263 263 262 261 260 257 255 252 251 251 250 247 247 246 245 245 245 244 245 246 245
331 330 332 326 314 310 315 322 319 322 326 325 317 315 313 311 309 306 301 300 297 297 293 291 287 279 272 269 266 262 259 255 256 257 256 255 254 252 250 249 248 247 245 244 245 245 245 244 245
306 297 297 307 314 319 320 323 323 325 319 315 313 312 311 313 312 311 308 305 300 298 295 293 290 285 284 282 274 265 261 257 256 252 253 251 251 253 253 251 248 248 246 247 246 243 244 244 246
307 299 303 313 314 309 316 321 321 315 315 320 321 318 317 315 315 312 309 306 303 299 295 293 291 288 286 283 283 278 269 260 258 255 254 252 251 252 251 252 251 250 249 246 245 245 245 243 244
299 306 311 310 310 312 313 317 317 320 318 323 321 319 319 316 314 312 307 306 305 302 300 298 296 294 291 287 282 278 273 265 258 256 254 254 253 252 250 250 249 250 250 248 247 246 245 244 243
312 308 309 311 310 313 316 318 318 321 324 325 323 320 317 316 313 310 308 306 305 301 301 300 300 297 293 287 282 279 273 267 263 259 257 253 253 252 250 252 251 250 248 247 248 247 246 245 244
308 308 314 315 310 317 319 321 323 326 326 323 322 321 318 315 313 311 311 313 310 307 304 302 300 296 291 287 280 275 271 267 264 264 262 257 253 252 250 248 249 251 251 250 250 248 248 247 244
312 312 316 322 320 321 321 321 323 325 325 324 323 320 317 315 316 317 317 315 313 311 311 304 302 299 293 287 280 274 269 267 263 264 263 261 260 257 255 254 250 249 250 250 251 252 250 248 248
310 312 320 324 324 321 320 321 323 324 325 323 321 319 319 320 320 319 318 315 313 313 310 308 304 300 295 288 281 275 270 268 266 265 265 264 263 261 260 257 253 253 250 249 246 248 247 250 248
310 315 318 321 323 318 318 319 323 323 323 323 320 320 321 321 322 320 319 316 316 313 312 310 307 302 297 292 284 276 270 267 266 265 266 269 267 264 260 258 256 257 254 252 250 246 246 246 248
308 313 313 316 319 319 316 319 321 320 322 322 323 322 322 323 321 321 319 319 317 314 313 310 306 299 293 287 277 273 274 269 269 264 269 272 276 280 277 269 260 256 256 256 256 250 247 246 245
308 310 311 312 315 316 316 318 319 321 321 323 323 323 324 324 323 322 320 319 316 315 313 308 301 292 287 283 275 272 275 278 274 273 276 281 279 285 283 280 276 266 262 258 253 254 251 245 244
305 308 309 311 313 314 316 317 320 320 321 324 324 323 324 325 326 323 321 320 318 316 312 305 296 286 287 286 284 285 283 276 274 274 275 275 275 271 273 273 273 274 269 265 261 254 253 252 246
310 311 313 313 312 314 316 318 320 322 324 325 326 326 326 326 328 327 325 323 321 319 313 302 291 288 288 286 285 288 284 281 274 276 274 270 268 265 267 264 266 269 272 270 265 260 255 251 251
319 318 315 314 314 316 317 320 324 325 325 327 328 329 329 335 331 331 330 328 326 324 316 304 294 295 300 297 292 286 285 283 283 282 277 278 268 267 260 262 266 268 268 268 266 263 259 255 252
316 320 319 319 319 319 321 324 326 326 327 330 333 333 336 336 336 335 335 335 333 329 324 319 315 312 305 304 303 300 296 289 285 281 275 270 267 266 266 262 262 265 268 267 265 265 260 257 255
319 325 325 324 324 324 325 326 328 329 331 336 338 335 338 339 339 341 341 340 342 337 336 335 331 326 321 316 308 300 291 290 289 285 279 274 268 265 263 262 262 265 268 269 270 267 263 260 259
321 324 326 325 327 328 327 328 332 334 335 337 339 340 340 341 343 343 344 344 347 345 342 339 335 325 318 311 307 304 301 296 294 289 284 281 279 276 273 272 270 269 270 272 272 271 267 263 259
318 323 323 326 330 328 328 331 335 336 341 341 341 344 344 345 346 344 344 344 346 342 338 334 329 328 329 330 327 323 319 314 308 301 294 286 281 277 276 275 274 273 272 272 273 272 270 267 261
319 321 323 324 328 330 333 334 337 341 345 345 345 344 346 346 345 345 346 344 343 342 341 343 346 349 351 349 347 346 340 332 326 316 308 300 293 288 284 280 277 275 273 273 272 271 271 270 267
321 320 323 327 332 335 337 340 340 344 348 346 347 348 352 349 347 348 345 343 342 347 351 356 0 5 3 359 357 355 352 346 337 328 318 309 302 295 289 283 278 275 274 274 275 276 274 273 269
324 323 325 329 333 336 339 341 344 348 350 347 347 349 348 349 351 350 346 346 355 358 3 12 14 13 12 7 2 359 353 347 337 328 319 310 302 296 292 290 288 285 281 279 278 276 274 270 267
329 328 329 331 337 340 342 344 347 350 351 349 349 350 349 351 353 348 350 357 4 12 20 21 23 21 18 10 7 360 354 347 340 331 322 318 314 310 305 300 295 291 288 285 282 278 273 270 266
336 334 333 336 340 341 344 347 347 352 354 353 352 351 351 355 355 351 358 2 11 18 23 24 23 21 16 12 8 4 358 352 348 341 337 335 328 323 315 307 301 297 295 292 286 281 278 272 272
340 338 338 340 342 343 345 347 349 353 356 355 354 355 355 357 357 358 2 2 16 22 25 24 21 16 14 12 10 6 2 359 354 348 347 345 343 339 329 320 311 308 307 298 295 288 282 280 274
Height
10891 10891 10890 10890 10889 10887 10886 10885 10884 10882 10882 10881 10878 10876 10872 10869 10866 10864 10861 10857 10854 10850 10847 10845 10842 10840 10838 10837 10836 10835 10835 10836 10834 10836 10836 10837 10838 10840 10842 10843 10845 10847 10850 10852 10856 10862 10867 10870 10873
10888 10888 10887 10885 10882 10880 10879 10878 10876 10874 10872 10869 10865 10863 10861 10857 10854 10850 10845 10841 10836 10832 10830 10827 10822 10819 10817 10815 10815 10814 10814 10811 10811 10813 10815 10815 10816 10819 10822 10824 10826 10830 10832 10834 10838 10843 10848 10852 10857
10883 10882 10881 10879 10877 10876 10874 10873 10870 10867 10865 10861 10856 10851 10846 10842 10838 10833 10828 10824 10819 10815 10811 10808 10803 10799 10796 10793 10792 10791 10790 10788 10787 10788 10792 10792 10793 10795 10797 10801 10804 10809 10813 10817 10819 10824 10829 10832 10838
10879 10877 10876 10875 10874 10873 10871 10866 10864 10860 10857 10853 10849 10842 10837 10830 10825 10820 10814 10808 10802 10796 10791 10788 10785 10779 10774 10771 10768 10767 10765 10763 10761 10763 10765 10765 10767 10771 10774 10777 10781 10785 10790 10795 10797 10803 10808 10812 10818
10875 10875 10873 10872 10870 10868 10865 10862 10859 10855 10851 10847 10842 10835 10830 10823 10817 10812 10807 10799 10793 10784 10775 10767 10762 10759 10754 10750 10745 10741 10738 10737 10734 10735 10737 10738 10739 10743 10748 10748 10754 10758 10762 10768 10773 10781 10787 10791 10797
10872 10872 10871 10869 10868 10865 10862 10859 10854 10850 10845 10840 10833 10827 10821 10814 10806 10797 10789 10781 10774 10766 10758 10753 10747 10739 10732 10727 10722 10719 10715 10713 10709 10708 10708 10708 10710 10714 10715 10719 10725 10728 10735 10741 10748 10754 10760 10765 10773
10871 10871 10870 10868 10865 10863 10858 10854 10849 10843 10837 10830 10822 10815 10808 10800 10792 10782 10772 10762 10753 10744 10738 10730 10722 10714 10708 10701 10694 10687 10684 10683 10680 10680 10681 10680 10678 10682 10685 10688 10694 10699 10705 10711 10720 10726 10732 10740 10748
10871 10869 10867 10864 10860 10855 10851 10845 10839 10832 10826 10818 10810 10803 10794 10784 10774 10764 10754 10744 10733 10723 10713 10705 10696 10686 10678 10671 10667 10662 10655 10651 10649 10647 10646 10648 10649 10653 10656 10660 10662 10667 10674 10681 10691 10695 10704 10712 10723
10869 10866 10863 10859 10855 10849 10842 10836 10830 10823 10816 10807 10799 10789 10778 10768 10756 10744 10732 10721 10712 10701 10691 10680 10669 10659 10649 10640 10632 10625 10621 10618 10615 10612 10614 10614 10619 10623 10626 10626 10629 10635 10641 10650 10657 10665 10674 10684 10697
10866 10863 10859 10854 10848 10843 10837 10830 10821 10813 10804 10794 10785 10773 10761 10749 10738 10726 10714 10703 10688 10672 10655 10640 10629 10618 10607 10598 10590 10582 10579 10578 10578 10579 10580 10585 10585 10585 10588 10592 10596 10599 10607 10614 10622 10631 10642 10652 10664
10862 10859 10854 10849 10843 10836 10829 10822 10813 10803 10793 10782 10769 10757 10744 10730 10717 10703 10689 10674 10662 10646 10627 10609 10593 10580 10566 10554 10546 10541 10535 10535 10537 10541 10545 10549 10550 10550 10552 10555 10559 10563 10567 10576 10588 10595 10608 10619 10630
10859 10854 10849 10843 10836 10829 10821 10812 10802 10791 10781 10769 10756 10742 10727 10712 10696 10680 10665 10649 10630 10611 10593 10574 10556 10537 10523 10514 10505 10501 10499 10498 10499 10502 10503 10505 10510 10513 10513 10515 10524 10528 10532 10540 10550 10561 10573 10584 10594
10854 10849 10843 10835 10827 10819 10810 10801 10791 10781 10768 10754 10741 10727 10712 10696 10678 10657 10640 10619 10599 10576 10553 10531 10514 10499 10484 10476 10470 10467 10468 10466 10467 10470 10472 10474 10477 10480 10484 10486 10488 10492 10498 10507 10517 10525 10534 10549 10560
10847 10842 10835 10827 10818 10810 10801 10792 10782 10769 10756 10743 10728 10711 10694 10676 10656 10635 10615 10594 10570 10545 10518 10499 10482 10468 10456 10449 10444 10441 10442 10444 10446 10446 10447 10448 10451 10455 10456 10456 10457 10455 10461 10468 10476 10485 10499 10507 10521
10841 10835 10828 10821 10812 10802 10793 10782 10772 10759 10747 10731 10712 10694 10672 10652 10631 10610 10589 10564 10539 10510 10491 10473 10456 10444 10437 10432 10427 10426 10427 10428 10429 10431 10432 10430 10431 10431 10434 10434 10433 10433 10434 10437 10441 10451 10459 10474 10482
10837 10829 10822 10814 10804 10794 10784 10775 10763 10749 10733 10715 10697 10675 10652 10630 10609 10584 10559 10532 10505 10484 10466 10450 10439 10430 10424 10420 10418 10417 10417 10417 10418 10419 10418 10418 10417 10415 10413 10414 10412 10413 10413 10412 10410 10415 10426 10436 10447
10830 10823 10814 10807 10798 10787 10777 10767 10753 10737 10721 10703 10683 10660 10637 10612 10587 10555 10526 10502 10479 10460 10444 10433 10425 10419 10414 10412 10409 10406 10405 10405 10405 10405 10406 10406 10405 10403 10401 10398 10393 10393 10391 10390 10390 10392 10395 10400 10408
10824 10816 10806 10798 10788 10777 10767 10756 10743 10726 10709 10691 10668 10645 10619 10589 10564 10534 10499 10474 10454 10439 10428 10420 10414 10410 10406 10402 10399 10396 10394 10394 10393 10393 10392 10393 10392 10390 10389 10385 10380 10376 10373 10369 10369 10370 10368 10370 10375
10816 10808 10798 10789 10780 10770 10756 10746 10732 10715 10697 10676 10652 10627 10602 10572 10538 10505 10476 10451 10434 10423 10416 10410 10406 10403 10398 10394 10390 10387 10384 10381 10379 10378 10378 10379 10379 10377 10374 10370 10366 10362 10356 10351 10349 10350 10350 10349 10348
10808 10802 10793 10783 10774 10764 10749 10735 10721 10704 10685 10665 10642 10616 10585 10546 10506 10479 10455 10434 10420 10411 10406 10403 10400 10397 10392 10388 10382 10377 10372 10367 10365 10363 10362 10361 10359 10357 10355 10352 10348 10344 10340 10335 10331 10330 10329 10329 10326
10803 10795 10785 10776 10766 10755 10743 10725 10712 10695 10675 10650 10621 10584 10552 10521 10491 10464 10444 10428 10415 10408 10405 10401 10397 10392 10386 10381 10374 10367 10360 10355 10350 10345 10342 10340 10340 10338 10335 10332 10327 10322 10320 10314 10312 10310 10309 10307 10305
10797 10787 10777 10767 10758 10747 10733 10720 10707 10686 10661 10637 10606 10571 10541 10506 10478 10454 10436 10424 10414 10408 10403 10396 10389 10384 10379 10373 10364 10356 10350 10340 10333 10330 10326 10323 10322 10318 10315 10312 10308 10304 10300 10295 10291 10289 10288 10287 10281
10790 10782 10771 10761 10751 10738 10725 10713 10701 10679 10655 10625 10598 10562 10526 10494 10466 10446 10433 10423 10414 10406 10398 10391 10385 10378 10371 10363 10355 10346 10338 10331 10323 10318 10313 10308 10305 10301 10298 10293 10289 10284 10279 10274 10270 10267 10265 10263 10261
10786 10778 10767 10754 10745 10733 10719 10703 10690 10671 10650 10618 10581 10550 10516 10484 10463 10446 10434 10423 10415 10406 10398 10389 10380 10372 10364 10355 10346 10336 10327 10318 10311 10305 10299 10293 10288 10284 10279 10273 10268 10263 10258 10253 10248 10244 10241 10240 10238
10782 10774 10763 10751 10739 10725 10711 10693 10674 10655 10629 10604 10576 10538 10507 10479 10458 10443 10431 10420 10410 10401 10392 10383 10374 10365 10357 10349 10340 10330 10322 10313 10304 10295 10287 10280 10273 10266 10260 10253 10248 10242 10237 10231 10226 10222 10218 10215 10213
10775 10765 10755 10743 10731 10717 10703 10686 10665 10643 10617 10589 10556 10526 10501 10480 10459 10444 10432 10421 10410 10398 10390 10381 10373 10364 10355 10348 10339 10328 10318 10309 10299 10289 10278 10268 10257 10248 10241 10235 10228 10222 10216 10210 10205 10201 10195 10192 10190
10770 10761 10752 10739 10728 10716 10700 10686 10665 10638 10607 10577 10550 10526 10496 10473 10456 10443 10433 10422 10410 10400 10390 10381 10373 10366 10358 10350 10340 10329 10316 10305 10292 10279 10267 10254 10242 10231 10223 10214 10208 10201 10195 10189 10184 10180 10176 10170 10169
10766 10757 10747 10735 10725 10710 10695 10681 10663 10639 10614 10583 10548 10516 10490 10469 10455 10444 10432 10421 10411 10402 10392 10385 10378 10370 10360 10351 10339 10328 10314 10299 10283 10268 10251 10236 10224 10213 10203 10195 10187 10179 10174 10170 10165 10160 10155 10153 10152
10761 10752 10742 10730 10717 10704 10691 10675 10655 10635 10609 10579 10546 10517 10490 10467 10455 10444 10433 10424 10414 10405 10396 10388 10379 10369 10360 10351 10337 10324 10306 10289 10269 10250 10232 10218 10206 10196 10186 10177 10170 10163 10158 10153 10149 10145 10142 10138 10137
10757 10747 10737 10726 10712 10697 10682 10670 10649 10625 10603 10573 10545 10513 10489 10469 10457 10446 10435 10426 10417 10407 10398 10391 10381 10372 10363 10349 10336 10319 10300 10279 10258 10237 10220 10205 10193 10182 10172 10164 10157 10151 10147 10142 10138 10133 10129 10128 10124